This is the latest recevied weather packets stored in our database for station/object 9W2FAI-1. If no packets are shown the sender has not sent any weather packets the latest 10 day(s).
| Time | Temp. | Humidity | Pressure | Rain* | Wind** | Luminosity | Snow |
|---|---|---|---|---|---|---|---|
| 1777727133 | 27.78° C | 48% | 1000 hPa | - | - | 0 W/m² | - |
| 1777726811 | 28.33° C | 48% | 1000 hPa | - | - | 0 W/m² | - |
| 1777726489 | 28.33° C | 49% | 1000 hPa | - | - | 0 W/m² | - |
| 1777726167 | 28.33° C | 47% | 1000 hPa | - | - | 0 W/m² | - |
| 1777725845 | 28.33° C | 48% | 1000 hPa | - | - | 0 W/m² | - |
| 1777725523 | 28.33° C | 49% | 1000 hPa | - | - | 0 W/m² | - |
| 1777725201 | 28.33° C | 50% | 1000 hPa | - | - | 0 W/m² | - |
| 1777724879 | 28.33° C | 51% | 1000 hPa | - | - | 0 W/m² | - |
| 1777724557 | 28.33° C | 53% | 1000 hPa | - | - | 0 W/m² | - |
| 1777724235 | 27.78° C | 56% | 1000 hPa | - | - | 0 W/m² | - |
| 1777723913 | 28.33° C | 56% | 1000 hPa | - | - | 0 W/m² | - |
| 1777723591 | 28.89° C | 56% | 1000 hPa | - | - | 0 W/m² | - |
| 1777723269 | 28.89° C | 58% | 999 hPa | - | - | 0 W/m² | - |
| 1777722947 | 28.89° C | 59% | 999 hPa | - | - | 0 W/m² | - |
| 1777722625 | 28.89° C | 61% | 999 hPa | - | - | 0 W/m² | - |
| 1777722303 | 28.89° C | 63% | 999 hPa | - | - | 0 W/m² | - |
| 1777721981 | 29.44° C | 66% | 999 hPa | - | - | 0 W/m² | - |
| 1777721659 | 30° C | 67% | 999 hPa | - | - | 0 W/m² | - |
| 1777721337 | 30° C | 66% | 999 hPa | - | - | 0 W/m² | - |
| 1777721015 | 30° C | 66% | 999 hPa | - | - | 0 W/m² | - |
| 1777720693 | 30° C | 65% | 999 hPa | - | - | 0 W/m² | - |
| 1777720371 | 30.56° C | 63% | 998 hPa | - | - | 0 W/m² | - |
| 1777720026 | 30° C | 63% | 998 hPa | - | - | 0 W/m² | - |
| 1777719704 | 30° C | 62% | 998 hPa | - | - | 0 W/m² | - |
| 1777719382 | 30° C | 60% | 998 hPa | - | - | 0 W/m² | - |
* Rain since midnight (hover to see other rain measurements)
** Current wind speed in m/s (hover to see current wind gust speed)